Clarksburg, WV

2:54 AM EDT on October 15, 2019 (GMT -0400)
Benedum

Weather History for KCKB - August, 2019

Change the Weather History Date:

Saturday, August 10, 2019

  Actual Average Record
Temperature  
Mean Temperature 69 °F -  
Max Temperature 83 °F 83 °F 99 °F (1930)
Min Temperature 55 °F 61 °F 48 °F (1927)
Cooling Degree Days 4    
Month to date cooling degree days 100  
Year to date cooling degree days 851  
Since 1 June cooling degree days 672  
Growing Degree Days 18 (Base 50)    
Moisture  
Dew Point 56 °F    
Average Humidity 67    
Maximum Humidity 93    
Minimum Humidity 40    
Precipitation  
Precipitation 0.00 in - - ()
Month to date precipitation 2.14  
Year to date precipitation 29.06  
Sea Level Pressure  
Sea Level Pressure 29.96 in    
Wind  
Wind Speed 2 mph (WNW)    
Max Wind Speed 14 mph    
Max Gust Speed 18 mph    
Visibility 10 miles    
Events      
Averages and records for this station are not official NWS values.
T = Trace of Precipitation, MM = Missing Value Source: NWS Daily Summary

Daily Weather History Graph

Daily Weather History Graph

Search for Another Location

Airport or City:

Astronomy

Aug. 10, 2019 Rise Set
Actual Time 6:28 AM EDT 8:23 PM EDT
Civil Twilight 5:59 AM EDT 8:52 PM EDT
Nautical Twilight 5:24 AM EDT 9:27 PM EDT
Astronomical Twilight 4:46 AM EDT 10:05 PM EDT
Moon 5:03 PM EDT (8/10) 2:04 AM EDT (8/10)
Length of Visible Light 14h 52m
Length of Day
13h 54m
Waxing Gibbous, 79% of the Moon is Illuminated
Aug 10
Waxing Gibbous
Aug 15
Full
Aug 23
Last Quarter
Aug 30
New
Sep 5
First Quarter

Hourly Weather History & Observations

Time (EDT) Temp. Heat Index Dew Point Humidity Pressure Visibility Wind Dir Wind Speed Gust Speed Precip Events Conditions
12:53 AM 61.0 °F - 55.9 °F 83% 29.95 in 10.0 mi Calm Calm - N/A   Clear
1:53 AM 59.0 °F - 55.0 °F 87% 29.94 in 10.0 mi Calm Calm - N/A   Clear
2:53 AM 59.0 °F - 55.0 °F 87% 29.93 in 10.0 mi Calm Calm - N/A   Clear
3:53 AM 55.9 °F - 53.1 °F 90% 29.93 in 10.0 mi Calm Calm - N/A   Clear
4:53 AM 57.0 °F - 53.1 °F 87% 29.94 in 10.0 mi Calm Calm - N/A   Clear
5:53 AM 57.9 °F - 53.1 °F 84% 29.94 in 10.0 mi Calm Calm - N/A   Clear
6:53 AM 55.9 °F - 53.1 °F 90% 29.95 in 9.0 mi Calm Calm - N/A   Clear
7:53 AM 60.1 °F - 55.9 °F 86% 29.96 in 10.0 mi Calm Calm - N/A   Clear
8:53 AM 64.0 °F - 55.9 °F 75% 29.97 in 10.0 mi Calm Calm - N/A   Clear
9:53 AM 66.9 °F - 57.0 °F 70% 29.98 in 10.0 mi Calm Calm - N/A   Clear
10:53 AM 69.1 °F - 59.0 °F 70% 29.99 in 10.0 mi Calm Calm - N/A   Clear
11:53 AM 73.9 °F - 59.0 °F 59% 29.99 in 10.0 mi Calm Calm - N/A   Clear
12:53 PM 78.1 °F - 55.9 °F 46% 29.96 in 10.0 mi West 3.5 mph - N/A   Clear
1:53 PM 79.0 °F - 54.0 °F 42% 29.96 in 10.0 mi WNW 11.5 mph - N/A   Scattered Clouds
2:53 PM 81.0 °F 80.8 °F 55.9 °F 42% 29.95 in 10.0 mi WNW 6.9 mph - N/A   Scattered Clouds
3:53 PM 82.0 °F 81.6 °F 55.9 °F 41% 29.94 in 10.0 mi WNW 10.4 mph - N/A   Partly Cloudy
4:53 PM 82.0 °F 81.4 °F 55.0 °F 39% 29.94 in 10.0 mi WNW 4.6 mph - N/A   Partly Cloudy
5:53 PM 81.0 °F 80.7 °F 55.0 °F 41% 29.93 in 10.0 mi WNW 11.5 mph 17.3 mph N/A   Mostly Cloudy
6:53 PM 80.1 °F 80.2 °F 55.9 °F 43% 29.94 in 10.0 mi NW 5.8 mph - N/A   Mostly Cloudy
7:53 PM 77.0 °F - 57.0 °F 50% 29.95 in 10.0 mi Calm Calm - N/A   Partly Cloudy
8:53 PM 71.1 °F - 59.0 °F 66% 29.96 in 10.0 mi Calm Calm - N/A   Partly Cloudy
9:53 PM 66.9 °F - 59.0 °F 76% 29.98 in 10.0 mi Calm Calm - N/A   Clear
10:53 PM 64.9 °F - 59.0 °F 81% 30.00 in 10.0 mi Calm Calm - N/A   Clear
11:53 PM 63.0 °F - 59.0 °F 87% 30.02 in 10.0 mi Calm Calm - N/A   Clear